Time,TemperatureF,DewpointF,PressureIn,WindDirection,WindDirectionDegrees,WindSpeedMPH,WindSpeedGustMPH,Humidity,HourlyPrecipIn,Conditions,Clouds,dailyrainin,SoftwareType,DateUTC
2013-05-29 00:02:00,63.0,61.0,29.93,ENE,70,6.0,-999.0,93,0.01,,,-99.99,,2013-05-29 05:02:00,
2013-05-29 00:12:00,63.0,61.0,29.93,ENE,70,6.0,-999.0,93,0.01,,,-99.99,,2013-05-29 05:12:00,
2013-05-29 00:22:00,63.0,61.0,29.93,ESE,110,6.0,-999.0,93,-99.99,,,-99.99,,2013-05-29 05:22:00,
2013-05-29 00:32:00,63.0,61.0,29.92,East,100,7.0,-999.0,93,0.01,,,-99.99,,2013-05-29 05:32:00,
2013-05-29 00:42:00,63.0,61.0,29.92,East,90,7.0,-999.0,93,0.01,,,-99.99,,2013-05-29 05:42:00,
2013-05-29 00:52:00,63.0,61.0,29.92,SSE,150,7.0,-999.0,93,0.01,,,-99.99,,2013-05-29 05:52:00,
2013-05-29 01:01:00,63.0,61.0,29.90,East,90,9.0,-999.0,93,0.02,,,-99.99,,2013-05-29 06:01:00,
2013-05-29 01:11:00,63.0,61.0,29.90,East,90,9.0,-999.0,93,0.02,,,-99.99,,2013-05-29 06:11:00,
2013-05-29 01:21:00,63.0,61.0,29.90,SE,140,7.0,-999.0,93,-99.99,,,-99.99,,2013-05-29 06:21:00,
2013-05-29 01:31:00,63.0,61.0,29.90,ESE,120,6.0,-999.0,93,-99.99,,,-99.99,,2013-05-29 06:31:00,
2013-05-29 01:42:00,63.0,61.0,29.89,ESE,110,6.0,-999.0,93,-99.99,,,-99.99,,2013-05-29 06:42:00,
2013-05-29 01:52:00,63.0,61.0,29.90,South,170,5.0,-999.0,93,0.01,,,-99.99,,2013-05-29 06:52:00,
2013-05-29 02:01:00,63.0,61.0,29.89,SE,130,5.0,-999.0,93,0.01,,,-99.99,,2013-05-29 07:01:00,
2013-05-29 02:11:00,63.0,61.0,29.89,SE,130,5.0,-999.0,93,0.01,,,-99.99,,2013-05-29 07:11:00,
2013-05-29 02:21:00,64.0,61.0,29.90,SE,130,3.0,-999.0,88,-99.99,,,-99.99,,2013-05-29 07:21:00,
2013-05-29 02:34:00,64.0,61.0,29.90,SE,130,5.0,-999.0,88,-99.99,,,-99.99,,2013-05-29 07:34:00,
2013-05-29 02:42:00,64.0,61.0,29.90,SE,130,5.0,-999.0,88,-99.99,,,-99.99,,2013-05-29 07:42:00,
2013-05-29 02:52:00,64.0,61.0,29.95,West,270,17.0,31.0,88,0.01,,,-99.99,,2013-05-29 07:52:00,
2013-05-29 03:02:00,64.0,61.0,29.95,West,270,17.0,31.0,88,0.01,,,-99.99,,2013-05-29 08:02:00,
2013-05-29 03:11:00,64.0,61.0,29.95,West,270,17.0,31.0,88,0.01,,,-99.99,,2013-05-29 08:11:00,
2013-05-29 03:22:00,64.0,61.0,29.93,SE,140,6.0,-999.0,88,0.01,,,-99.99,,2013-05-29 08:22:00,
2013-05-29 03:32:00,64.0,61.0,29.93,SE,140,6.0,-999.0,88,0.01,,,-99.99,,2013-05-29 08:32:00,
2013-05-29 03:42:00,64.0,61.0,29.93,SE,140,6.0,-999.0,88,0.01,,,-99.99,,2013-05-29 08:42:00,
2013-05-29 03:52:00,64.0,61.0,29.93,SE,140,6.0,-999.0,88,0.01,,,-99.99,,2013-05-29 08:52:00,
2013-05-29 04:01:00,64.0,61.0,29.93,SE,140,6.0,-999.0,88,0.01,,,-99.99,,2013-05-29 09:01:00,
2013-05-29 04:52:00,66.0,61.0,29.90,SSE,150,8.0,-999.0,82,0.01,,,-99.99,,2013-05-29 09:52:00,
2013-05-29 05:03:00,66.0,61.0,29.89,SSE,150,9.0,-999.0,82,0.02,,,-99.99,,2013-05-29 10:03:00,
2013-05-29 05:12:00,66.0,61.0,29.89,SSE,150,9.0,-999.0,82,0.02,,,-99.99,,2013-05-29 10:12:00,
2013-05-29 05:22:00,66.0,61.0,29.89,SSE,150,8.0,-999.0,82,-99.99,,,-99.99,,2013-05-29 10:22:00,
2013-05-29 05:32:00,66.0,63.0,29.89,SSE,160,8.0,-999.0,88,0.01,,,-99.99,,2013-05-29 10:32:00,
2013-05-29 05:42:00,66.0,63.0,29.89,SSE,160,9.0,-999.0,88,0.01,,,-99.99,,2013-05-29 10:42:00,
2013-05-29 05:53:00,66.0,63.0,29.89,SSE,160,10.0,-999.0,88,0.01,,,-99.99,,2013-05-29 10:53:00,
2013-05-29 06:02:00,66.0,63.0,29.88,SSE,150,13.0,-999.0,88,0.01,,,-99.99,,2013-05-29 11:02:00,
2013-05-29 06:12:00,66.0,63.0,29.88,SSE,150,13.0,-999.0,88,0.01,,,-99.99,,2013-05-29 11:12:00,
2013-05-29 06:22:00,66.0,61.0,29.89,SSE,150,8.0,-999.0,82,-99.99,,,-99.99,,2013-05-29 11:22:00,
2013-05-29 06:32:00,66.0,63.0,29.90,SSE,150,6.0,-999.0,88,-99.99,,,-99.99,,2013-05-29 11:32:00,
2013-05-29 06:42:00,66.0,63.0,29.90,SSE,150,7.0,-999.0,88,0.01,,,-99.99,,2013-05-29 11:42:00,
2013-05-29 06:52:00,66.0,63.0,29.90,SSE,160,7.0,-999.0,88,0.01,,,-99.99,,2013-05-29 11:52:00,
2013-05-29 07:01:00,66.0,63.0,29.90,SSE,160,10.0,-999.0,88,0.01,,,-99.99,,2013-05-29 12:01:00,
2013-05-29 07:11:00,66.0,63.0,29.90,SSE,160,10.0,-999.0,88,0.01,,,-99.99,,2013-05-29 12:11:00,
2013-05-29 07:21:00,68.0,63.0,29.90,SSE,160,10.0,-999.0,82,0.01,,,-99.99,,2013-05-29 12:21:00,
2013-05-29 07:32:00,68.0,63.0,29.90,SSE,160,10.0,-999.0,82,0.01,,,-99.99,,2013-05-29 12:32:00,
2013-05-29 07:42:00,68.0,63.0,29.90,SSE,160,9.0,-999.0,82,0.01,,,-99.99,,2013-05-29 12:42:00,
2013-05-29 07:52:00,68.0,63.0,29.90,SSE,160,9.0,-999.0,82,0.01,,,-99.99,,2013-05-29 12:52:00,
2013-05-29 08:02:00,70.0,63.0,29.90,SSE,160,10.0,-999.0,77,0.02,,,-99.99,,2013-05-29 13:02:00,
2013-05-29 08:11:00,70.0,63.0,29.90,SSE,160,10.0,-999.0,77,0.02,,,-99.99,,2013-05-29 13:11:00,
2013-05-29 08:21:00,70.0,63.0,29.90,SSE,160,10.0,-999.0,77,0.02,,,-99.99,,2013-05-29 13:21:00,
2013-05-29 08:32:00,70.0,63.0,29.90,SSE,160,10.0,-999.0,77,0.02,,,-99.99,,2013-05-29 13:32:00,
2013-05-29 08:42:00,72.0,64.0,29.91,SSE,160,10.0,16.0,78,-99.99,,,-99.99,,2013-05-29 13:42:00,
2013-05-29 08:53:00,72.0,64.0,29.91,SSE,160,10.0,16.0,78,-99.99,,,-99.99,,2013-05-29 13:53:00,
2013-05-29 09:02:00,72.0,64.0,29.91,SSE,160,10.0,16.0,78,-99.99,,,-99.99,,2013-05-29 14:02:00,
2013-05-29 09:11:00,72.0,64.0,29.91,SSE,160,10.0,16.0,78,-99.99,,,-99.99,,2013-05-29 14:11:00,
2013-05-29 15:23:00,86.0,61.0,29.86,South,190,13.0,22.0,42,-99.99,,,-99.99,,2013-05-29 20:23:00,
2013-05-29 15:33:00,86.0,59.0,29.85,South,190,13.0,25.0,40,-99.99,,,-99.99,,2013-05-29 20:33:00,
2013-05-29 15:42:00,86.0,61.0,29.85,SSE,160,13.0,21.0,42,-99.99,,,-99.99,,2013-05-29 20:42:00,
2013-05-29 15:53:00,88.0,61.0,29.84,South,180,10.0,20.0,40,-99.99,,,-99.99,,2013-05-29 20:53:00,
2013-05-29 16:02:00,86.0,59.0,29.84,South,190,15.0,25.0,40,-99.99,,,-99.99,,2013-05-29 21:02:00,
2013-05-29 16:12:00,86.0,59.0,29.84,South,190,15.0,25.0,40,-99.99,,,-99.99,,2013-05-29 21:12:00,
2013-05-29 16:22:00,86.0,59.0,29.83,South,180,17.0,25.0,40,-99.99,,,-99.99,,2013-05-29 21:22:00,
2013-05-29 16:33:00,86.0,59.0,29.83,South,190,17.0,24.0,40,-99.99,,,-99.99,,2013-05-29 21:33:00,
2013-05-29 16:43:00,86.0,61.0,29.83,South,180,12.0,18.0,42,-99.99,,,-99.99,,2013-05-29 21:43:00,
2013-05-29 16:53:00,86.0,59.0,29.82,South,170,15.0,23.0,40,-99.99,,,-99.99,,2013-05-29 21:53:00,
2013-05-29 17:03:00,86.0,59.0,29.82,South,180,18.0,25.0,40,-99.99,,,-99.99,,2013-05-29 22:03:00,
2013-05-29 17:12:00,86.0,59.0,29.82,South,180,18.0,25.0,40,-99.99,,,-99.99,,2013-05-29 22:12:00,
2013-05-29 17:23:00,86.0,59.0,29.81,South,180,12.0,24.0,40,-99.99,,,-99.99,,2013-05-29 22:23:00,
2013-05-29 17:33:00,86.0,59.0,29.81,South,180,17.0,23.0,40,-99.99,,,-99.99,,2013-05-29 22:33:00,
2013-05-29 17:42:00,86.0,61.0,29.81,South,180,17.0,21.0,42,-99.99,,,-99.99,,2013-05-29 22:42:00,
2013-05-29 17:53:00,86.0,59.0,29.81,South,180,20.0,29.0,40,-99.99,,,-99.99,,2013-05-29 22:53:00,
2013-05-29 18:02:00,84.0,59.0,29.81,South,180,18.0,25.0,42,-99.99,,,-99.99,,2013-05-29 23:02:00,
2013-05-29 18:12:00,84.0,59.0,29.81,South,180,18.0,25.0,42,-99.99,,,-99.99,,2013-05-29 23:12:00,
2013-05-29 18:21:00,84.0,61.0,29.80,South,180,18.0,25.0,45,-99.99,,,-99.99,,2013-05-29 23:21:00,
2013-05-29 18:33:00,84.0,61.0,29.80,South,170,14.0,22.0,45,-99.99,,,-99.99,,2013-05-29 23:33:00,
2013-05-29 18:42:00,84.0,61.0,29.80,South,170,10.0,18.0,45,-99.99,,,-99.99,,2013-05-29 23:42:00,
2013-05-29 18:53:00,82.0,61.0,29.81,South,180,10.0,22.0,48,-99.99,,,-99.99,,2013-05-29 23:53:00,
2013-05-29 19:01:00,82.0,61.0,29.80,South,180,12.0,20.0,48,-99.99,,,-99.99,,2013-05-30 00:01:00,
2013-05-29 19:11:00,82.0,61.0,29.80,South,180,12.0,20.0,48,-99.99,,,-99.99,,2013-05-30 00:11:00,
2013-05-29 19:21:00,82.0,61.0,29.80,South,170,12.0,18.0,48,-99.99,,,-99.99,,2013-05-30 00:21:00,
2013-05-29 19:31:00,82.0,61.0,29.80,SSE,160,10.0,-999.0,48,-99.99,,,-99.99,,2013-05-30 00:31:00,
2013-05-29 19:41:00,81.0,61.0,29.79,South,170,10.0,-999.0,50,-99.99,,,-99.99,,2013-05-30 00:41:00,
2013-05-29 19:52:00,81.0,61.0,29.78,SSE,150,8.0,-999.0,50,-99.99,,,-99.99,,2013-05-30 00:52:00,
2013-05-29 20:01:00,81.0,61.0,29.78,SSE,150,8.0,-999.0,50,-99.99,,,-99.99,,2013-05-30 01:01:00,
2013-05-29 20:11:00,81.0,61.0,29.78,SSE,150,8.0,-999.0,50,-99.99,,,-99.99,,2013-05-30 01:11:00,
2013-05-29 20:21:00,79.0,61.0,29.78,SE,140,7.0,-999.0,54,-99.99,,,-99.99,,2013-05-30 01:21:00,
2013-05-29 20:32:00,79.0,61.0,29.79,SE,140,6.0,-999.0,54,-99.99,,,-99.99,,2013-05-30 01:32:00,
2013-05-29 20:41:00,79.0,61.0,29.80,SSE,150,6.0,-999.0,54,-99.99,,,-99.99,,2013-05-30 01:41:00,
2013-05-29 20:52:00,79.0,61.0,29.80,SSE,160,6.0,-999.0,54,-99.99,,,-99.99,,2013-05-30 01:52:00,
2013-05-29 21:01:00,77.0,61.0,29.81,SSE,160,7.0,-999.0,57,-99.99,,,-99.99,,2013-05-30 02:01:00,
2013-05-29 21:11:00,77.0,61.0,29.81,SSE,160,7.0,-999.0,57,-99.99,,,-99.99,,2013-05-30 02:11:00,
2013-05-29 21:21:00,77.0,61.0,29.82,SSE,160,6.0,-999.0,57,-99.99,,,-99.99,,2013-05-30 02:21:00,
2013-05-29 21:32:00,77.0,61.0,29.83,South,170,8.0,-999.0,57,-99.99,,,-99.99,,2013-05-30 02:32:00,
2013-05-29 21:42:00,77.0,61.0,29.83,South,170,8.0,-999.0,57,-99.99,,,-99.99,,2013-05-30 02:42:00,
2013-05-29 21:52:00,77.0,61.0,29.83,South,170,8.0,-999.0,57,-99.99,,,-99.99,,2013-05-30 02:52:00,
2013-05-29 22:01:00,75.0,59.0,29.85,SSE,160,6.0,-999.0,57,-99.99,,,-99.99,,2013-05-30 03:01:00,
2013-05-29 22:11:00,75.0,59.0,29.85,SSE,160,6.0,-999.0,57,-99.99,,,-99.99,,2013-05-30 03:11:00,
2013-05-29 22:21:00,75.0,59.0,29.86,SSE,160,8.0,-999.0,57,-99.99,,,-99.99,,2013-05-30 03:21:00,
2013-05-29 22:33:00,77.0,59.0,29.86,SSE,160,10.0,-999.0,53,-99.99,,,-99.99,,2013-05-30 03:33:00,
2013-05-29 22:43:00,77.0,57.0,29.87,SSE,160,9.0,-999.0,50,-99.99,,,-99.99,,2013-05-30 03:43:00,
2013-05-29 22:53:00,75.0,59.0,29.88,SSE,160,7.0,-999.0,57,-99.99,,,-99.99,,2013-05-30 03:53:00,
2013-05-29 23:02:00,75.0,59.0,29.88,South,170,7.0,-999.0,57,-99.99,,,-99.99,,2013-05-30 04:02:00,
2013-05-29 23:12:00,75.0,59.0,29.88,South,170,7.0,-999.0,57,-99.99,,,-99.99,,2013-05-30 04:12:00,
2013-05-29 23:23:00,73.0,59.0,29.88,SSE,160,7.0,-999.0,60,-99.99,,,-99.99,,2013-05-30 04:23:00,
2013-05-29 23:33:00,75.0,59.0,29.88,SSE,150,8.0,-999.0,57,-99.99,,,-99.99,,2013-05-30 04:33:00,
2013-05-29 23:42:00,73.0,59.0,29.87,SSE,150,7.0,-999.0,60,-99.99,,,-99.99,,2013-05-30 04:42:00,
2013-05-29 23:53:00,73.0,57.0,29.87,SSE,150,8.0,-999.0,56,-99.99,,,-99.99,,2013-05-30 04:53:00,